Weather in Bratslav

Ukraine / Vinnytsia Region     48°48′52″N   28°56′40″E
temp.,
°C
wind,
m/s
gust,
m/s
humid.,
%
clouds,
%
prec.,
mm/h
press.,
hPa
HPBL,
m
1 august, sun
sun100:00+21sse410750 0.1 1010178
03:00+19s35841 0.1 101095
06:00+18s34895 1.6 101066
09:00+23sw11762 2.4 1010332
12:00+27wsw22600 0.0 10101020
15:00+29wsw33510 0.0 10101541
18:00+29sw23510 0.0 10091507
21:00+24ssw22719 0.0 100918
2 august, mon
mon200:00+22sse34745 0.0 100957
03:00+19wnw2288100 0.9 101038
06:00+20se238697 0.6 100761
09:00+26ssw4136898 0.6 1007437
12:00+29ssw8105293 0.0 1007958
15:00+30wsw67514 0.0 10061287
18:00+27nw566449 0.1 1007503
21:00+19nw410840 0.8 1009225
3 august, tue
tue300:00+18nw49940 0.0 1012245
03:00+15nw48940 0.0 1013193
06:00+14nw35955 0.0 1015138
09:00+18nw457368 0.0 1016523
12:00+23nw45560 0.0 10161340
15:00+25nw444768 0.0 10152057
18:00+22nw366280 0.1 1016308
21:00+19n12690 0.1 101711
4 august, wed
wed400:00+17nne11730 0.0 101711
03:00+16se12764 0.0 101811
06:00+15e22794 0.0 101813
09:00+21se34619 0.0 1018300
12:00+24sse4551100 0.0 10181213
15:00+27sse454646 0.0 10171930
18:00+26sse3555100 0.0 1016550
21:00+21sse2270100 0.0 101614
5 august, thu
thu500:00+20sse3778100 0.3 1016134
03:00+20sse4117865 0.4 1015285
06:00+18s41382100 0.0 1014266
09:00+23s6136349 0.1 1013573
12:00+27s81047100 0.0 10121099
15:00+29s794589 0.0 10111294
18:00+29sse6104795 0.0 1008944
21:00+26sse8165230 0.0 1007740